Powrót do katalogu

THOR ABLESTAR DEB

AktywnyLEO
NORAD 138·DEBRIS·🇺🇸 United States

Wystrzelony Jun 29, 1961 z Cape Canaveral Space Force Station

Loading…

Następne Przeloty (najbliższe 24 godziny)

TLE

ŚwieżeSource: Space-Track

Epoka: Sep 7, 2026, 12:13 UTC

1 00138U 61015Y   26250.50905963  .00000294  00000-0  23043-3 0  9997
2 00138  67.1526 259.0734 0024434  49.6348 310.6869 14.04819181314392

Śledź THOR ABLESTAR DEB w czasie rzeczywistym z AllMySat

Download on the App Store